Weather in Net'inka

Russia / Bryansk Oblast     53°20′52″N   34°11′41″E
temp.,
°C
wind,
m/s
gust,
m/s
humid.,
%
clouds,
%
prec.,
mm/h
press.,
hPa
HPBL,
m
14 june, mon
mon1400:00+15s229519 0.0 100926
03:00+14se22955 0.0 101024
06:00+15sse13955 0.0 101193
09:00+19s23808 0.0 1013475
12:00+23wsw226117 0.0 10141130
15:00+24wnw32606 0.0 10141180
18:00+24wnw116529 0.6 1014853
21:00+18wnw12855 1.4 101511
15 june, tue
tue1500:00+16nnw22895 0.2 101511
03:00+15nnw11916 0.2 101511
06:00+17nnw12915 0.0 101549
09:00+21nnw23785 0.0 1014445
12:00+24wnw22643 0.0 10131151
15:00+25w32595 0.0 10121219
18:00+24w34705 0.1 1011451
21:00+18nw36905 0.6 1011107
16 june, wed
wed1600:00+16nnw369553 0.0 1011104
03:00+15nnw37965 0.0 1012123
06:00+15nnw36921 0.0 1013165
09:00+20n4571100 0.0 1013500
12:00+23n455880 0.0 10141162
15:00+25n34512 0.0 10141917
18:00+20n5107691 0.1 1016373
21:00+19ne38795 0.1 1017215
17 june, thu
thu1700:00+14ne347884 0.0 101963
03:00+13ne36815 0.0 102199
06:00+13ne37871 0.0 1022173
09:00+19ene47600 0.0 1023626
12:00+22ene45480 0.0 10241388
15:00+24ene44440 0.0 10241701
18:00+22ene36580 0.0 1024539
21:00+16ese33820 0.0 102544
18 june, fri
fri1800:00+14ese22905 0.0 102720
03:00+12e22910 0.0 102716
06:00+14e24885 0.0 1028113
09:00+20ese35650 0.0 1028600
12:00+23se34510 0.0 10281449
15:00+24se33510 0.0 10271626
18:00+24se34635 0.0 1026607
21:00+18se22825 0.0 102720